Location: Buffign�court
(47.8126°N, 6.0176°E)
Time: 17:48:53
(UTC+00:00)

Meteor 2-20 Rocket - Pass Details

Date: 16 June 2021
Orbit: 940 x 959 km, 82.5° (Epoch: 01 August)

Event Time Altitude Azimuth Distance (km) Brightness Sun altitude
Rises 20:31:21 0° 179° (S) 3,616 7.0 -7.6°
Reaches altitude 10° 20:33:51 10° 177° (S) 2,672 6.3 -7.8°
Maximum altitude 20:39:55 69° 95° (E) 1,015 4.5 -8.5°
Drops below altitude 10° 20:45:59 10° 14° (NNE) 2,677 7.4 -9.1°
Sets 20:48:29 0° 12° (NNE) 3,624 8.1 -9.4°
